sat.trackr.live / text

‹ back to catalog

STARLINK-31692

NORAD 59577 · 2024-076P

PAYLOAD ACTIVE UNKNOWN

§ Identity

Operator
Country
US
Launch date
2024-04-23
Launch site
AFETR
Launch vehicle
Mass (kg)
RCS (m²)

Purposes: comms

External: N2YO · Heavens-Above · Gunter

§ Orbital elements

Epoch: 2026-05-25T02:35:03.958080Z

Period
94.10 min
Inclination
43.0080°
Eccentricity
0.0004354
Mean motion
15.30327817 rev/d
Perigee alt
471.8 km
Apogee alt
477.8 km
Semi-major
6,853.0 km
B*
9.0791e-4
RAAN
297.0711°
Arg perigee
335.3126°
Mean anomaly
24.7518°
Rev number
11,819

§ Raw data

STARLINK-316921 59577U 24076P   26145.10768470  .00027022  00000+0  90791-3 0  99942 59577  43.0080 297.0711 0004354 335.3126  24.7518 15.30327817118190

JSON: /api/v1/satellites/59577 · /tle

For live sub-satellite position, see the globe view (requires WebGL).

§ Visibility from observer

Set your observer location to see the next 7 days of passes ≥ 10°. The values pass through the URL so the page stays shareable.

No JS? Fill the form by hand. The geolocation button needs JavaScript.